2024-172C

Last updated on Fri Oct 04 2024 00:02:04 GMT+0000 (Coordinated Universal Time)

1 61222U 24172C 24277.52034336 .00014273 00000+0 20198-2 0 9995 2 61222 98.0183 3.9204 0000605 147.7006 212.4241 14.77191388 1857
UTC large
Height (km)
Speed (km/s)
/
Latitude / Longitude
Inclination (degrees)
Orbital Period (minutes)
Azimuth
Elevation
Range (km)
Doppler Factor

Next 0 passes for location: London (51.5072 / 0.1276)

Sorry there are no passes over London.